Time,TemperatureF,DewpointF,PressureIn,WindDirection,WindDirectionDegrees,WindSpeedMPH,WindSpeedGustMPH,Humidity,HourlyPrecipIn,Conditions,Clouds,dailyrainin,SoftwareType,DateUTC
2013-02-21 00:00:00,46.4,43.3,30.12,SW,217,0.0,0.0,89,0.00,,,0.00,Wunderground v.1.15,2013-02-21 05:00:00,
2013-02-21 00:02:00,46.4,43.3,30.12,NW,322,0.0,1.0,89,0.00,,,0.00,Wunderground v.1.15,2013-02-21 05:02:00,
2013-02-21 00:04:00,46.3,43.2,30.12,NNE,32,0.0,1.0,89,0.00,,,0.00,Wunderground v.1.15,2013-02-21 05:04:00,
2013-02-21 00:10:00,46.3,43.2,30.12,NNE,19,0.0,0.0,89,0.00,,,0.00,Wunderground v.1.15,2013-02-21 05:10:00,
2013-02-21 00:12:00,46.2,43.1,30.13,NNE,13,0.0,0.0,89,0.00,,,0.00,Wunderground v.1.15,2013-02-21 05:12:00,
2013-02-21 00:18:00,45.9,42.5,30.13,NNE,13,0.0,0.0,88,0.00,,,0.00,Wunderground v.1.15,2013-02-21 05:18:00,
2013-02-21 00:24:00,45.6,42.5,30.12,North,5,0.0,0.0,89,0.00,,,0.00,Wunderground v.1.15,2013-02-21 05:24:00,
2013-02-21 00:30:00,45.5,42.4,30.12,North,5,0.0,0.0,89,0.00,,,0.00,Wunderground v.1.15,2013-02-21 05:30:00,
2013-02-21 00:36:00,45.0,42.0,30.12,NE,55,0.0,0.0,89,0.00,,,0.00,Wunderground v.1.15,2013-02-21 05:36:00,
2013-02-21 00:42:00,45.3,42.8,30.12,NE,49,0.0,0.0,91,0.00,,,0.00,Wunderground v.1.15,2013-02-21 05:42:00,
2013-02-21 00:48:00,45.2,42.4,30.13,NE,46,0.0,0.0,90,0.00,,,0.00,Wunderground v.1.15,2013-02-21 05:48:00,
2013-02-21 00:54:00,44.9,42.1,30.12,NE,43,0.0,0.0,90,0.00,,,0.00,Wunderground v.1.15,2013-02-21 05:54:00,
2013-02-21 01:00:00,44.7,41.9,30.12,NE,43,0.0,0.0,90,0.00,,,0.00,Wunderground v.1.15,2013-02-21 06:00:00,
2013-02-21 01:06:00,44.2,41.5,30.12,NE,43,0.0,0.0,90,0.00,,,0.00,Wunderground v.1.15,2013-02-21 06:06:00,
2013-02-21 01:12:00,44.3,41.8,30.12,NE,44,0.0,0.0,91,0.00,,,0.00,Wunderground v.1.15,2013-02-21 06:12:00,
2013-02-21 01:18:00,44.0,41.3,30.11,NE,44,0.0,0.0,90,0.00,,,0.00,Wunderground v.1.15,2013-02-21 06:18:00,
2013-02-21 01:24:00,43.8,41.3,30.12,NE,36,0.0,0.0,91,0.00,,,0.00,Wunderground v.1.15,2013-02-21 06:24:00,
2013-02-21 01:30:00,43.9,41.7,30.12,NNE,29,0.0,0.0,92,0.00,,,0.00,Wunderground v.1.15,2013-02-21 06:30:00,
2013-02-21 01:36:00,43.9,41.7,30.11,NE,40,0.0,0.0,92,0.00,,,0.00,Wunderground v.1.15,2013-02-21 06:36:00,
2013-02-21 01:42:00,43.8,41.6,30.11,NE,47,0.0,0.0,92,0.00,,,0.00,Wunderground v.1.15,2013-02-21 06:42:00,
2013-02-21 01:48:00,43.7,41.5,30.12,NE,45,0.0,0.0,92,0.00,,,0.00,Wunderground v.1.15,2013-02-21 06:48:00,
2013-02-21 01:54:00,43.5,41.3,30.11,NE,46,0.0,0.0,92,0.00,,,0.00,Wunderground v.1.15,2013-02-21 06:54:00,
2013-02-21 02:00:00,43.6,41.7,30.11,SW,223,0.0,0.0,93,0.00,,,0.00,Wunderground v.1.15,2013-02-21 07:00:00,
2013-02-21 02:06:00,43.9,42.0,30.11,SSW,210,0.0,1.0,93,0.00,,,0.00,Wunderground v.1.15,2013-02-21 07:06:00,
2013-02-21 02:12:00,44.3,42.4,30.11,SW,226,0.0,0.0,93,0.00,,,0.00,Wunderground v.1.15,2013-02-21 07:12:00,
2013-02-21 02:18:00,44.2,42.0,30.11,SW,229,0.0,0.0,92,0.00,,,0.00,Wunderground v.1.15,2013-02-21 07:18:00,
2013-02-21 02:24:00,44.0,41.8,30.11,NNW,344,0.0,0.0,92,0.00,,,0.00,Wunderground v.1.15,2013-02-21 07:24:00,
2013-02-21 02:30:00,43.9,41.7,30.11,NNE,22,0.0,0.0,92,0.00,,,0.00,Wunderground v.1.15,2013-02-21 07:30:00,
2013-02-21 02:36:00,43.7,41.5,30.11,NNE,22,0.0,0.0,92,0.00,,,0.00,Wunderground v.1.15,2013-02-21 07:36:00,
2013-02-21 02:42:00,43.6,41.4,30.11,NNE,22,0.0,0.0,92,0.00,,,0.00,Wunderground v.1.15,2013-02-21 07:42:00,
2013-02-21 02:48:00,43.4,41.5,30.10,NNE,22,0.0,0.0,93,0.00,,,0.00,Wunderground v.1.15,2013-02-21 07:48:00,
2013-02-21 02:54:00,43.4,41.2,30.10,NNE,28,0.0,0.0,92,0.00,,,0.00,Wunderground v.1.15,2013-02-21 07:54:00,
2013-02-21 03:00:00,43.3,41.4,30.11,NE,43,0.0,1.0,93,0.00,,,0.00,Wunderground v.1.15,2013-02-21 08:00:00,
2013-02-21 03:06:00,43.4,41.5,30.11,NE,46,1.0,1.0,93,0.00,,,0.00,Wunderground v.1.15,2013-02-21 08:06:00,
2013-02-21 03:12:00,43.5,41.6,30.11,NE,47,0.0,1.0,93,0.00,,,0.00,Wunderground v.1.15,2013-02-21 08:12:00,
2013-02-21 03:18:00,43.4,41.5,30.11,NE,51,0.0,1.0,93,0.00,,,0.00,Wunderground v.1.15,2013-02-21 08:18:00,
2013-02-21 03:24:00,43.1,41.2,30.10,NE,55,0.0,1.0,93,0.00,,,0.00,Wunderground v.1.15,2013-02-21 08:24:00,
2013-02-21 03:30:00,42.9,41.0,30.11,ENE,58,1.0,1.0,93,0.00,,,0.00,Wunderground v.1.15,2013-02-21 08:30:00,
2013-02-21 03:36:00,42.7,40.8,30.11,NE,56,0.0,1.0,93,0.00,,,0.00,Wunderground v.1.15,2013-02-21 08:36:00,
2013-02-21 03:42:00,42.7,40.8,30.10,ENE,74,0.0,0.0,93,0.00,,,0.00,Wunderground v.1.15,2013-02-21 08:42:00,
2013-02-21 03:48:00,42.6,41.0,30.10,ENE,63,1.0,1.0,94,0.00,,,0.00,Wunderground v.1.15,2013-02-21 08:48:00,
2013-02-21 03:54:00,42.5,40.9,30.10,ENE,69,1.0,1.0,94,0.00,,,0.00,Wunderground v.1.15,2013-02-21 08:54:00,
2013-02-21 04:00:00,42.5,40.9,30.10,ENE,61,1.0,1.0,94,0.00,,,0.00,Wunderground v.1.15,2013-02-21 09:00:00,
2013-02-21 04:06:00,42.7,41.1,30.10,NE,43,0.0,2.0,94,0.00,,,0.00,Wunderground v.1.15,2013-02-21 09:06:00,
2013-02-21 04:12:00,42.6,41.0,30.10,NNE,29,0.0,0.0,94,0.00,,,0.00,Wunderground v.1.15,2013-02-21 09:12:00,
2013-02-21 04:18:00,42.4,40.8,30.11,NNE,16,0.0,0.0,94,0.00,,,0.00,Wunderground v.1.15,2013-02-21 09:18:00,
2013-02-21 04:24:00,42.3,40.7,30.11,NNW,341,0.0,0.0,94,0.00,,,0.00,Wunderground v.1.15,2013-02-21 09:24:00,
2013-02-21 04:30:00,42.1,40.5,30.11,NNE,15,0.0,0.0,94,0.00,,,0.00,Wunderground v.1.15,2013-02-21 09:30:00,
2013-02-21 04:36:00,42.1,40.5,30.11,ENE,69,0.0,1.0,94,0.00,,,0.00,Wunderground v.1.15,2013-02-21 09:36:00,
2013-02-21 04:42:00,42.3,40.7,30.11,ENE,65,0.0,0.0,94,0.00,,,0.00,Wunderground v.1.15,2013-02-21 09:42:00,
2013-02-21 04:48:00,42.2,40.6,30.12,ENE,64,0.0,1.0,94,0.00,,,0.00,Wunderground v.1.15,2013-02-21 09:48:00,
2013-02-21 04:54:00,42.2,40.6,30.12,NNE,32,0.0,0.0,94,0.00,,,0.00,Wunderground v.1.15,2013-02-21 09:54:00,
2013-02-21 05:00:00,42.2,40.6,30.12,NE,36,0.0,0.0,94,0.00,,,0.00,Wunderground v.1.15,2013-02-21 10:00:00,
2013-02-21 05:06:00,42.1,40.5,30.12,NE,44,0.0,2.0,94,0.00,,,0.00,Wunderground v.1.15,2013-02-21 10:06:00,
2013-02-21 05:12:00,42.1,40.5,30.12,ENE,66,0.0,0.0,94,0.00,,,0.00,Wunderground v.1.15,2013-02-21 10:12:00,
2013-02-21 05:18:00,42.2,40.6,30.11,ENE,66,1.0,1.0,94,0.00,,,0.00,Wunderground v.1.15,2013-02-21 10:18:00,
2013-02-21 05:24:00,42.2,40.6,30.11,NE,55,1.0,1.0,94,0.00,,,0.00,Wunderground v.1.15,2013-02-21 10:24:00,
2013-02-21 05:30:00,42.4,40.8,30.11,NE,34,0.0,0.0,94,0.00,,,0.00,Wunderground v.1.15,2013-02-21 10:30:00,
2013-02-21 05:36:00,42.4,40.8,30.11,NNE,22,0.0,0.0,94,0.00,,,0.00,Wunderground v.1.15,2013-02-21 10:36:00,
2013-02-21 05:42:00,42.3,40.7,30.11,ENE,63,0.0,0.0,94,0.00,,,0.00,Wunderground v.1.15,2013-02-21 10:42:00,
2013-02-21 05:48:00,42.2,40.6,30.11,WNW,298,0.0,0.0,94,0.00,,,0.00,Wunderground v.1.15,2013-02-21 10:48:00,
2013-02-21 05:54:00,42.2,40.6,30.11,ENE,74,0.0,1.0,94,0.00,,,0.00,Wunderground v.1.15,2013-02-21 10:54:00,
2013-02-21 06:00:00,42.5,40.9,30.11,ENE,63,1.0,1.0,94,0.00,,,0.00,Wunderground v.1.15,2013-02-21 11:00:00,
2013-02-21 06:06:00,42.6,41.0,30.11,NE,44,1.0,1.0,94,0.00,,,0.00,Wunderground v.1.15,2013-02-21 11:06:00,
2013-02-21 06:12:00,42.6,40.7,30.12,NNW,344,0.0,0.0,93,0.00,,,0.00,Wunderground v.1.15,2013-02-21 11:12:00,
2013-02-21 06:18:00,42.6,40.7,30.12,NE,46,0.0,0.0,93,0.00,,,0.00,Wunderground v.1.15,2013-02-21 11:18:00,
2013-02-21 06:24:00,42.7,40.8,30.11,ENE,64,1.0,2.0,93,0.00,,,0.00,Wunderground v.1.15,2013-02-21 11:24:00,
2013-02-21 06:30:00,42.5,40.6,30.12,ENE,67,1.0,1.0,93,0.00,,,0.00,Wunderground v.1.15,2013-02-21 11:30:00,
2013-02-21 06:36:00,42.7,40.8,30.12,ENE,61,1.0,1.0,93,0.00,,,0.00,Wunderground v.1.15,2013-02-21 11:36:00,
2013-02-21 06:42:00,42.8,40.9,30.12,ENE,58,0.0,0.0,93,0.00,,,0.00,Wunderground v.1.15,2013-02-21 11:42:00,
2013-02-21 06:48:00,42.5,40.6,30.12,ENE,57,0.0,0.0,93,0.00,,,0.00,Wunderground v.1.15,2013-02-21 11:48:00,
2013-02-21 06:54:00,42.2,40.0,30.12,ENE,57,0.0,0.0,92,0.00,,,0.00,Wunderground v.1.15,2013-02-21 11:54:00,
2013-02-21 07:00:00,41.6,39.4,30.13,ENE,64,0.0,0.0,92,0.00,,,0.00,Wunderground v.1.15,2013-02-21 12:00:00,
2013-02-21 07:06:00,41.8,39.9,30.12,ENE,63,0.0,2.0,93,0.00,,,0.00,Wunderground v.1.15,2013-02-21 12:06:00,
2013-02-21 07:12:00,41.8,39.9,30.13,NNE,20,0.0,0.0,93,0.00,,,0.00,Wunderground v.1.15,2013-02-21 12:12:00,
2013-02-21 07:18:00,41.9,40.0,30.13,East,88,0.0,1.0,93,0.00,,,0.00,Wunderground v.1.15,2013-02-21 12:18:00,
2013-02-21 07:24:00,42.3,40.4,30.14,NE,43,0.0,0.0,93,0.00,,,0.00,Wunderground v.1.15,2013-02-21 12:24:00,
2013-02-21 07:30:00,43.1,41.5,30.14,NW,315,0.0,0.0,94,0.00,,,0.00,Wunderground v.1.15,2013-02-21 12:30:00,
2013-02-21 07:36:00,43.7,41.8,30.15,WSW,247,0.0,0.0,93,0.00,,,0.00,Wunderground v.1.15,2013-02-21 12:36:00,
2013-02-21 07:42:00,44.4,42.2,30.15,NNE,13,0.0,0.0,92,0.00,,,0.00,Wunderground v.1.15,2013-02-21 12:42:00,
2013-02-21 07:48:00,45.6,43.4,30.16,NNE,30,0.0,0.0,92,0.00,,,0.00,Wunderground v.1.15,2013-02-21 12:48:00,
2013-02-21 07:54:00,46.9,43.8,30.16,NE,53,0.0,2.0,89,0.00,,,0.00,Wunderground v.1.15,2013-02-21 12:54:00,
2013-02-21 08:00:00,47.9,44.2,30.16,East,91,0.0,0.0,87,0.00,,,0.00,Wunderground v.1.15,2013-02-21 13:00:00,
2013-02-21 08:06:00,49.1,44.5,30.16,ESE,103,0.0,0.0,84,0.00,,,0.00,Wunderground v.1.15,2013-02-21 13:06:00,
2013-02-21 08:12:00,50.0,44.4,30.16,East,98,0.0,1.0,81,0.00,,,0.00,Wunderground v.1.15,2013-02-21 13:12:00,
2013-02-21 08:18:00,51.1,43.8,30.16,SSW,213,0.0,1.0,76,0.00,,,0.00,Wunderground v.1.15,2013-02-21 13:18:00,
2013-02-21 08:24:00,52.0,42.9,30.17,South,173,1.0,2.0,71,0.00,,,0.00,Wunderground v.1.15,2013-02-21 13:24:00,
2013-02-21 08:30:00,52.3,42.0,30.17,NE,49,1.0,3.0,68,0.00,,,0.00,Wunderground v.1.15,2013-02-21 13:30:00,
2013-02-21 08:36:00,52.9,41.4,30.17,NW,310,2.0,3.0,65,0.00,,,0.00,Wunderground v.1.15,2013-02-21 13:36:00,
2013-02-21 08:42:00,53.4,40.3,30.17,ESE,113,2.0,3.0,61,0.00,,,0.00,Wunderground v.1.15,2013-02-21 13:42:00,
2013-02-21 08:48:00,54.0,40.0,30.17,East,100,2.0,3.0,59,0.00,,,0.00,Wunderground v.1.15,2013-02-21 13:48:00,
2013-02-21 08:54:00,54.7,39.8,30.17,ESE,107,1.0,2.0,57,0.00,,,0.00,Wunderground v.1.15,2013-02-21 13:54:00,
2013-02-21 09:00:00,55.4,40.9,30.17,East,83,1.0,2.0,58,0.00,,,0.00,Wunderground v.1.15,2013-02-21 14:00:00,
2013-02-21 09:06:00,55.7,39.8,30.17,ENE,63,2.0,5.0,55,0.00,,,0.00,Wunderground v.1.15,2013-02-21 14:06:00,
2013-02-21 09:12:00,56.5,41.0,30.17,East,97,2.0,2.0,56,0.00,,,0.00,Wunderground v.1.15,2013-02-21 14:12:00,
2013-02-21 09:18:00,57.1,40.1,30.17,ENE,69,1.0,4.0,53,0.00,,,0.00,Wunderground v.1.15,2013-02-21 14:18:00,
2013-02-21 09:24:00,57.2,40.2,30.17,ENE,66,2.0,4.0,53,0.00,,,0.00,Wunderground v.1.15,2013-02-21 14:24:00,
2013-02-21 09:30:00,57.8,40.3,30.17,ENE,71,2.0,2.0,52,0.00,,,0.00,Wunderground v.1.15,2013-02-21 14:30:00,
2013-02-21 09:36:00,58.5,40.9,30.17,SSE,152,1.0,2.0,52,0.00,,,0.00,Wunderground v.1.15,2013-02-21 14:36:00,
2013-02-21 09:42:00,59.4,41.8,30.18,ESE,116,1.0,1.0,52,0.00,,,0.00,Wunderground v.1.15,2013-02-21 14:42:00,
2013-02-21 09:48:00,60.1,41.9,30.18,NNE,30,1.0,2.0,51,0.00,,,0.00,Wunderground v.1.15,2013-02-21 14:48:00,
2013-02-21 09:54:00,60.4,41.1,30.18,ENE,78,2.0,4.0,49,0.00,,,0.00,Wunderground v.1.15,2013-02-21 14:54:00,
2013-02-21 10:00:00,60.9,41.1,30.18,East,88,2.0,5.0,48,0.00,,,0.00,Wunderground v.1.15,2013-02-21 15:00:00,
2013-02-21 10:06:00,61.0,41.2,30.18,East,92,2.0,5.0,48,0.00,,,0.00,Wunderground v.1.15,2013-02-21 15:06:00,
2013-02-21 10:12:00,60.6,41.3,30.18,ENE,63,3.0,6.0,49,0.00,,,0.00,Wunderground v.1.15,2013-02-21 15:12:00,
2013-02-21 10:18:00,61.3,42.5,30.18,NE,44,3.0,6.0,50,0.00,,,0.00,Wunderground v.1.15,2013-02-21 15:18:00,
2013-02-21 10:24:00,62.3,41.8,30.17,SE,131,2.0,3.0,47,0.00,,,0.00,Wunderground v.1.15,2013-02-21 15:24:00,
2013-02-21 10:30:00,62.8,41.1,30.17,ESE,114,2.0,4.0,45,0.00,,,0.00,Wunderground v.1.15,2013-02-21 15:30:00,
2013-02-21 10:36:00,63.6,43.0,30.17,SSW,206,2.0,4.0,47,0.00,,,0.00,Wunderground v.1.15,2013-02-21 15:36:00,
2013-02-21 10:42:00,64.2,41.2,30.18,ESE,104,2.0,2.0,43,0.00,,,0.00,Wunderground v.1.15,2013-02-21 15:42:00,
2013-02-21 10:48:00,64.7,43.4,30.17,ENE,77,2.0,2.0,46,0.00,,,0.00,Wunderground v.1.15,2013-02-21 15:48:00,
2013-02-21 10:54:00,65.2,43.9,30.18,East,100,1.0,5.0,46,0.00,,,0.00,Wunderground v.1.15,2013-02-21 15:54:00,
2013-02-21 11:00:00,64.9,42.5,30.17,SE,126,3.0,3.0,44,0.00,,,0.00,Wunderground v.1.15,2013-02-21 16:00:00,
2013-02-21 11:06:00,65.9,41.5,30.17,East,90,2.0,6.0,41,0.00,,,0.00,Wunderground v.1.15,2013-02-21 16:06:00,
2013-02-21 11:12:00,65.7,40.7,30.17,ESE,103,2.0,2.0,40,0.00,,,0.00,Wunderground v.1.15,2013-02-21 16:12:00,
2013-02-21 11:18:00,66.1,41.7,30.17,ESE,103,2.0,4.0,41,0.00,,,0.00,Wunderground v.1.15,2013-02-21 16:18:00,
2013-02-21 11:24:00,66.1,41.1,30.16,ESE,111,3.0,5.0,40,0.00,,,0.00,Wunderground v.1.15,2013-02-21 16:24:00,
2013-02-21 11:30:00,66.4,42.0,30.16,NW,322,2.0,2.0,41,0.00,,,0.00,Wunderground v.1.15,2013-02-21 16:30:00,
2013-02-21 11:36:00,66.7,42.9,30.16,East,84,2.0,2.0,42,0.00,,,0.00,Wunderground v.1.15,2013-02-21 16:36:00,
2013-02-21 11:42:00,67.8,43.2,30.16,WNW,302,1.0,2.0,41,0.00,,,0.00,Wunderground v.1.15,2013-02-21 16:42:00,
2013-02-21 11:48:00,67.1,42.0,30.16,SE,134,2.0,2.0,40,0.00,,,0.00,Wunderground v.1.15,2013-02-21 16:48:00,
2013-02-21 11:54:00,68.0,43.4,30.16,ESE,121,2.0,2.0,41,0.00,,,0.00,Wunderground v.1.15,2013-02-21 16:54:00,
2013-02-21 12:00:00,69.7,42.9,30.16,ESE,106,1.0,3.0,38,0.00,,,0.00,Wunderground v.1.15,2013-02-21 17:00:00,
2013-02-21 12:06:00,68.6,42.6,30.15,SSE,153,2.0,8.0,39,0.00,,,0.00,Wunderground v.1.15,2013-02-21 17:06:00,
2013-02-21 12:12:00,69.3,43.9,30.16,ESE,112,2.0,3.0,40,0.00,,,0.00,Wunderground v.1.15,2013-02-21 17:12:00,
2013-02-21 12:18:00,69.8,44.4,30.15,ENE,65,1.0,3.0,40,0.00,,,0.00,Wunderground v.1.15,2013-02-21 17:18:00,
2013-02-21 12:24:00,70.1,45.9,30.15,East,95,1.0,5.0,42,0.00,,,0.00,Wunderground v.1.15,2013-02-21 17:24:00,
2013-02-21 12:30:00,69.8,45.0,30.14,East,84,2.0,2.0,41,0.00,,,0.00,Wunderground v.1.15,2013-02-21 17:30:00,
2013-02-21 12:36:00,68.8,45.4,30.14,SE,141,2.0,5.0,43,0.00,,,0.00,Wunderground v.1.15,2013-02-21 17:36:00,
2013-02-21 12:42:00,68.5,45.7,30.13,East,91,3.0,5.0,44,0.00,,,0.00,Wunderground v.1.15,2013-02-21 17:42:00,
2013-02-21 12:48:00,68.0,46.4,30.13,SSE,163,3.0,5.0,46,0.00,,,0.00,Wunderground v.1.15,2013-02-21 17:48:00,
2013-02-21 12:54:00,67.6,47.2,30.13,ESE,113,4.0,5.0,48,0.00,,,0.00,Wunderground v.1.15,2013-02-21 17:54:00,
2013-02-21 13:00:00,67.2,46.8,30.13,ESE,116,5.0,7.0,48,0.00,,,0.00,Wunderground v.1.15,2013-02-21 18:00:00,
2013-02-21 13:06:00,67.1,47.8,30.12,ESE,102,6.0,8.0,50,0.00,,,0.00,Wunderground v.1.15,2013-02-21 18:06:00,
2013-02-21 13:12:00,66.9,47.6,30.12,ENE,65,5.0,7.0,50,0.00,,,0.00,Wunderground v.1.15,2013-02-21 18:12:00,
2013-02-21 13:18:00,67.5,47.7,30.12,ESE,102,4.0,8.0,49,0.00,,,0.00,Wunderground v.1.15,2013-02-21 18:18:00,
2013-02-21 13:24:00,67.0,47.7,30.12,SE,140,4.0,5.0,50,0.00,,,0.00,Wunderground v.1.15,2013-02-21 18:24:00,
2013-02-21 13:30:00,67.5,48.2,30.12,ESE,109,4.0,4.0,50,0.00,,,0.00,Wunderground v.1.15,2013-02-21 18:30:00,
2013-02-21 13:36:00,67.7,48.4,30.12,SE,134,3.0,4.0,50,0.00,,,0.00,Wunderground v.1.15,2013-02-21 18:36:00,
2013-02-21 13:42:00,67.5,48.7,30.11,ESE,111,4.0,5.0,51,0.00,,,0.00,Wunderground v.1.15,2013-02-21 18:42:00,
2013-02-21 13:48:00,67.4,49.2,30.10,East,93,4.0,5.0,52,0.00,,,0.00,Wunderground v.1.15,2013-02-21 18:48:00,
2013-02-21 13:54:00,67.3,49.1,30.10,ENE,73,4.0,4.0,52,0.00,,,0.00,Wunderground v.1.15,2013-02-21 18:54:00,
2013-02-21 14:00:00,67.5,48.7,30.10,SE,126,4.0,4.0,51,0.00,,,0.00,Wunderground v.1.15,2013-02-21 19:00:00,
2013-02-21 14:06:00,67.7,49.4,30.09,SE,138,4.0,17.0,52,0.00,,,0.00,Wunderground v.1.15,2013-02-21 19:06:00,
2013-02-21 14:12:00,67.4,48.6,30.09,ESE,116,5.0,9.0,51,0.00,,,0.00,Wunderground v.1.15,2013-02-21 19:12:00,
2013-02-21 14:18:00,67.1,47.8,30.09,East,95,5.0,9.0,50,0.00,,,0.00,Wunderground v.1.15,2013-02-21 19:18:00,
2013-02-21 14:24:00,66.9,48.2,30.09,ESE,110,4.0,5.0,51,0.00,,,0.00,Wunderground v.1.15,2013-02-21 19:24:00,
2013-02-21 14:30:00,66.9,48.2,30.09,ESE,122,4.0,4.0,51,0.00,,,0.00,Wunderground v.1.15,2013-02-21 19:30:00,
2013-02-21 14:36:00,66.6,47.9,30.08,ESE,119,5.0,8.0,51,0.00,,,0.00,Wunderground v.1.15,2013-02-21 19:36:00,
2013-02-21 14:42:00,66.6,48.4,30.08,SE,134,5.0,5.0,52,0.00,,,0.00,Wunderground v.1.15,2013-02-21 19:42:00,
2013-02-21 14:48:00,66.7,48.5,30.08,ESE,117,5.0,8.0,52,0.00,,,0.00,Wunderground v.1.15,2013-02-21 19:48:00,
2013-02-21 14:54:00,66.4,48.7,30.08,SSE,153,6.0,8.0,53,0.00,,,0.00,Wunderground v.1.15,2013-02-21 19:54:00,
2013-02-21 15:00:00,66.2,48.6,30.08,SSE,148,5.0,5.0,53,0.00,,,0.00,Wunderground v.1.15,2013-02-21 20:00:00,
2013-02-21 15:06:00,65.8,48.2,30.08,SE,131,6.0,8.0,53,0.00,,,0.00,Wunderground v.1.15,2013-02-21 20:06:00,
2013-02-21 15:12:00,65.4,48.3,30.08,ESE,116,7.0,7.0,54,0.00,,,0.00,Wunderground v.1.15,2013-02-21 20:12:00,
2013-02-21 15:18:00,65.1,48.0,30.08,East,99,6.0,7.0,54,0.00,,,0.00,Wunderground v.1.15,2013-02-21 20:18:00,
2013-02-21 15:24:00,65.3,48.7,30.08,SE,135,5.0,6.0,55,0.00,,,0.00,Wunderground v.1.15,2013-02-21 20:24:00,
2013-02-21 15:32:00,64.9,47.9,30.08,ESE,105,5.0,5.0,54,0.00,,,0.00,Wunderground v.1.15,2013-02-21 20:32:00,
2013-02-21 15:38:00,64.5,48.4,30.07,ESE,114,7.0,13.0,56,0.00,,,0.00,Wunderground v.1.15,2013-02-21 20:38:00,
2013-02-21 15:44:00,64.4,49.3,30.07,ESE,107,7.0,10.0,58,0.00,,,0.00,Wunderground v.1.15,2013-02-21 20:44:00,
2013-02-21 15:50:00,64.2,49.6,30.07,ESE,113,6.0,7.0,59,0.00,,,0.00,Wunderground v.1.15,2013-02-21 20:50:00,
2013-02-21 15:56:00,63.9,49.7,30.08,East,99,7.0,8.0,60,0.00,,,0.00,Wunderground v.1.15,2013-02-21 20:56:00,
2013-02-21 16:02:00,63.7,49.5,30.08,East,96,7.0,10.0,60,0.00,,,0.00,Wunderground v.1.15,2013-02-21 21:02:00,
2013-02-21 16:08:00,63.8,49.6,30.08,ESE,110,6.0,10.0,60,0.00,,,0.00,Wunderground v.1.15,2013-02-21 21:08:00,
2013-02-21 16:14:00,64.0,50.3,30.08,East,101,5.0,6.0,61,0.00,,,0.00,Wunderground v.1.15,2013-02-21 21:14:00,
2013-02-21 16:20:00,63.8,50.5,30.08,East,94,5.0,6.0,62,0.00,,,0.00,Wunderground v.1.15,2013-02-21 21:20:00,
2013-02-21 16:26:00,64.0,50.7,30.07,ESE,110,5.0,6.0,62,0.00,,,0.00,Wunderground v.1.15,2013-02-21 21:26:00,
2013-02-21 16:32:00,63.4,51.0,30.07,ESE,106,6.0,7.0,64,0.00,,,0.00,Wunderground v.1.15,2013-02-21 21:32:00,
2013-02-21 16:38:00,63.4,51.4,30.07,ESE,103,5.0,7.0,65,0.00,,,0.00,Wunderground v.1.15,2013-02-21 21:38:00,
2013-02-21 16:44:00,63.1,51.6,30.07,ESE,113,5.0,7.0,66,0.00,,,0.00,Wunderground v.1.15,2013-02-21 21:44:00,
2013-02-21 16:50:00,62.8,50.9,30.07,SE,125,5.0,5.0,65,0.00,,,0.00,Wunderground v.1.15,2013-02-21 21:50:00,
2013-02-21 16:56:00,62.4,51.7,30.07,East,90,5.0,5.0,68,0.00,,,0.00,Wunderground v.1.15,2013-02-21 21:56:00,
2013-02-21 17:02:00,62.0,51.7,30.07,East,85,5.0,7.0,69,0.00,,,0.00,Wunderground v.1.15,2013-02-21 22:02:00,
2013-02-21 17:08:00,61.7,52.2,30.07,ESE,113,5.0,12.0,71,0.00,,,0.00,Wunderground v.1.15,2013-02-21 22:08:00,
2013-02-21 17:14:00,61.5,52.4,30.07,SE,134,4.0,6.0,72,0.00,,,0.00,Wunderground v.1.15,2013-02-21 22:14:00,
2013-02-21 17:20:00,61.2,52.5,30.07,ESE,107,4.0,4.0,73,0.00,,,0.00,Wunderground v.1.15,2013-02-21 22:20:00,
2013-02-21 17:26:00,60.9,52.2,30.07,East,80,4.0,4.0,73,0.00,,,0.00,Wunderground v.1.15,2013-02-21 22:26:00,
2013-02-21 17:32:00,60.8,52.5,30.07,ESE,118,4.0,8.0,74,0.00,,,0.00,Wunderground v.1.15,2013-02-21 22:32:00,
2013-02-21 17:38:00,60.8,52.5,30.07,East,90,4.0,8.0,74,0.00,,,0.00,Wunderground v.1.15,2013-02-21 22:38:00,
2013-02-21 17:44:00,60.6,52.6,30.07,East,99,3.0,5.0,75,0.00,,,0.00,Wunderground v.1.15,2013-02-21 22:44:00,
2013-02-21 17:50:00,60.4,52.4,30.07,East,85,3.0,8.0,75,0.00,,,0.00,Wunderground v.1.15,2013-02-21 22:50:00,
2013-02-21 17:56:00,60.2,52.6,30.07,ENE,61,3.0,8.0,76,0.00,,,0.00,Wunderground v.1.15,2013-02-21 22:56:00,
2013-02-21 18:02:00,59.9,52.7,30.07,East,85,3.0,9.0,77,0.00,,,0.00,Wunderground v.1.15,2013-02-21 23:02:00,
2013-02-21 18:08:00,59.7,52.5,30.08,NNE,26,2.0,9.0,77,0.00,,,0.00,Wunderground v.1.15,2013-02-21 23:08:00,
2013-02-21 18:14:00,59.2,52.3,30.08,NE,47,2.0,3.0,78,0.00,,,0.00,Wunderground v.1.15,2013-02-21 23:14:00,
2013-02-21 18:20:00,58.9,52.7,30.08,ESE,113,2.0,2.0,80,0.00,,,0.00,Wunderground v.1.15,2013-02-21 23:20:00,
2013-02-21 18:26:00,58.6,52.4,30.08,ENE,78,1.0,2.0,80,0.00,,,0.00,Wunderground v.1.15,2013-02-21 23:26:00,
2013-02-21 18:32:00,58.2,52.4,30.08,NE,56,1.0,2.0,81,0.00,,,0.00,Wunderground v.1.15,2013-02-21 23:32:00,
2013-02-21 18:38:00,57.8,52.3,30.07,ESE,104,1.0,2.0,82,0.00,,,0.00,Wunderground v.1.15,2013-02-21 23:38:00,
2013-02-21 18:44:00,57.8,52.7,30.07,East,92,0.0,1.0,83,0.00,,,0.00,Wunderground v.1.15,2013-02-21 23:44:00,
2013-02-21 18:50:00,57.7,52.6,30.07,East,101,0.0,0.0,83,0.00,,,0.00,Wunderground v.1.15,2013-02-21 23:50:00,
2013-02-21 18:56:00,57.5,52.4,30.07,East,101,0.0,0.0,83,0.00,,,0.00,Wunderground v.1.15,2013-02-21 23:56:00,
2013-02-21 19:02:00,57.2,52.4,30.07,ESE,102,0.0,8.0,84,0.00,,,0.00,Wunderground v.1.15,2013-02-22 00:02:00,
2013-02-21 19:08:00,57.1,52.6,30.07,East,82,0.0,8.0,85,0.00,,,0.00,Wunderground v.1.15,2013-02-22 00:08:00,
2013-02-21 19:14:00,57.0,52.5,30.08,ESE,109,0.0,0.0,85,0.00,,,0.00,Wunderground v.1.15,2013-02-22 00:14:00,
2013-02-21 19:20:00,56.9,52.4,30.07,ESE,107,0.0,0.0,85,0.00,,,0.00,Wunderground v.1.15,2013-02-22 00:20:00,
2013-02-21 19:26:00,56.7,52.6,30.08,East,86,0.0,1.0,86,0.00,,,0.00,Wunderground v.1.15,2013-02-22 00:26:00,
2013-02-21 19:32:00,56.7,52.9,30.08,East,88,0.0,2.0,87,0.00,,,0.00,Wunderground v.1.15,2013-02-22 00:32:00,
2013-02-21 19:38:00,56.9,53.1,30.07,East,99,1.0,2.0,87,0.00,,,0.00,Wunderground v.1.15,2013-02-22 00:38:00,
2013-02-21 19:44:00,56.6,52.8,30.08,ESE,103,0.0,1.0,87,0.00,,,0.00,Wunderground v.1.15,2013-02-22 00:44:00,
2013-02-21 19:50:00,56.5,53.0,30.08,East,91,0.0,0.0,88,0.00,,,0.00,Wunderground v.1.15,2013-02-22 00:50:00,
2013-02-21 19:56:00,56.4,52.9,30.07,ESE,105,0.0,0.0,88,0.00,,,0.00,Wunderground v.1.15,2013-02-22 00:56:00,
2013-02-21 20:02:00,56.3,52.8,30.07,ESE,105,0.0,1.0,88,0.00,,,0.00,Wunderground v.1.15,2013-02-22 01:02:00,
2013-02-21 20:08:00,56.2,53.0,30.07,ESE,105,0.0,1.0,89,0.00,,,0.00,Wunderground v.1.15,2013-02-22 01:08:00,
2013-02-21 20:14:00,56.2,53.0,30.08,East,80,0.0,0.0,89,0.00,,,0.00,Wunderground v.1.15,2013-02-22 01:14:00,
2013-02-21 20:20:00,56.1,52.9,30.07,East,86,0.0,0.0,89,0.00,,,0.00,Wunderground v.1.15,2013-02-22 01:20:00,
2013-02-21 20:26:00,56.2,53.3,30.08,ENE,69,0.0,0.0,90,0.00,,,0.00,Wunderground v.1.15,2013-02-22 01:26:00,
2013-02-21 20:32:00,56.3,53.7,30.08,ENE,65,0.0,1.0,91,0.00,,,0.00,Wunderground v.1.15,2013-02-22 01:32:00,
2013-02-21 20:38:00,56.2,53.3,30.08,East,100,0.0,1.0,90,0.00,,,0.00,Wunderground v.1.15,2013-02-22 01:38:00,
2013-02-21 20:44:00,56.2,53.6,30.08,ENE,76,0.0,0.0,91,0.00,,,0.00,Wunderground v.1.15,2013-02-22 01:44:00,
2013-02-21 20:50:00,56.4,53.8,30.08,ENE,60,1.0,1.0,91,0.00,,,0.00,Wunderground v.1.15,2013-02-22 01:50:00,
2013-02-21 20:56:00,56.4,53.8,30.08,ENE,70,1.0,3.0,91,0.00,,,0.00,Wunderground v.1.15,2013-02-22 01:56:00,
2013-02-21 21:02:00,56.3,53.7,30.08,East,88,2.0,2.0,91,0.00,,,0.00,Wunderground v.1.15,2013-02-22 02:02:00,
2013-02-21 21:08:00,56.5,54.2,30.08,East,97,1.0,2.0,92,0.00,,,0.00,Wunderground v.1.15,2013-02-22 02:08:00,
2013-02-21 21:14:00,56.6,54.3,30.07,East,90,0.0,0.0,92,0.00,,,0.00,Wunderground v.1.15,2013-02-22 02:14:00,
2013-02-21 21:20:00,56.8,54.5,30.07,East,86,0.0,1.0,92,0.00,,,0.00,Wunderground v.1.15,2013-02-22 02:20:00,
2013-02-21 21:26:00,57.0,54.7,30.07,ESE,109,1.0,1.0,92,0.00,,,0.00,Wunderground v.1.15,2013-02-22 02:26:00,
2013-02-21 21:32:00,57.2,54.9,30.08,ESE,104,0.0,1.0,92,0.00,,,0.00,Wunderground v.1.15,2013-02-22 02:32:00,
2013-02-21 21:38:00,57.4,55.1,30.08,ENE,78,0.0,1.0,92,0.00,,,0.00,Wunderground v.1.15,2013-02-22 02:38:00,
2013-02-21 21:44:00,57.6,55.3,30.08,SE,128,1.0,1.0,92,0.00,,,0.00,Wunderground v.1.15,2013-02-22 02:44:00,
2013-02-21 21:50:00,57.9,55.6,30.08,East,82,1.0,1.0,92,0.00,,,0.00,Wunderground v.1.15,2013-02-22 02:50:00,
2013-02-21 21:56:00,58.1,55.8,30.08,East,82,1.0,2.0,92,0.00,,,0.00,Wunderground v.1.15,2013-02-22 02:56:00,
2013-02-21 22:02:00,58.3,56.0,30.08,East,99,1.0,3.0,92,0.00,,,0.00,Wunderground v.1.15,2013-02-22 03:02:00,
2013-02-21 22:08:00,58.5,56.2,30.08,ESE,102,1.0,3.0,92,0.00,,,0.00,Wunderground v.1.15,2013-02-22 03:08:00,
2013-02-21 22:14:00,58.8,56.2,30.08,ENE,77,1.0,3.0,91,0.00,,,0.00,Wunderground v.1.15,2013-02-22 03:14:00,
2013-02-21 22:20:00,59.0,56.4,30.08,ENE,60,2.0,2.0,91,0.00,,,0.00,Wunderground v.1.15,2013-02-22 03:20:00,
2013-02-21 22:26:00,59.2,56.6,30.08,ENE,74,2.0,2.0,91,0.00,,,0.00,Wunderground v.1.15,2013-02-22 03:26:00,
2013-02-21 22:32:00,59.3,56.7,30.08,ENE,68,1.0,1.0,91,0.00,,,0.00,Wunderground v.1.15,2013-02-22 03:32:00,
2013-02-21 22:38:00,59.5,56.9,30.08,East,86,1.0,1.0,91,0.00,,,0.00,Wunderground v.1.15,2013-02-22 03:38:00,
2013-02-21 22:44:00,59.6,57.0,30.08,East,101,0.0,1.0,91,0.00,,,0.00,Wunderground v.1.15,2013-02-22 03:44:00,
2013-02-21 22:50:00,59.8,57.2,30.08,East,91,0.0,2.0,91,0.00,,,0.00,Wunderground v.1.15,2013-02-22 03:50:00,
2013-02-21 22:56:00,60.3,57.7,30.08,East,86,1.0,2.0,91,0.00,,,0.00,Wunderground v.1.15,2013-02-22 03:56:00,
2013-02-21 23:02:00,60.8,58.2,30.08,East,87,1.0,3.0,91,0.00,,,0.00,Wunderground v.1.15,2013-02-22 04:02:00,
2013-02-21 23:08:00,60.9,57.6,30.08,East,101,0.0,3.0,89,0.00,,,0.00,Wunderground v.1.15,2013-02-22 04:08:00,
2013-02-21 23:14:00,60.7,57.4,30.08,East,89,0.0,0.0,89,0.00,,,0.00,Wunderground v.1.15,2013-02-22 04:14:00,
2013-02-21 23:20:00,60.6,57.7,30.08,East,80,0.0,0.0,90,0.00,,,0.00,Wunderground v.1.15,2013-02-22 04:20:00,
2013-02-21 23:26:00,60.8,57.8,30.08,East,100,0.0,0.0,90,0.00,,,0.00,Wunderground v.1.15,2013-02-22 04:26:00,
2013-02-21 23:32:00,60.9,57.9,30.08,ESE,119,0.0,0.0,90,0.00,,,0.00,Wunderground v.1.15,2013-02-22 04:32:00,
2013-02-21 23:38:00,60.9,57.9,30.08,South,182,0.0,0.0,90,0.00,,,0.00,Wunderground v.1.15,2013-02-22 04:38:00,
2013-02-21 23:44:00,61.0,58.0,30.08,South,191,0.0,0.0,90,0.00,,,0.00,Wunderground v.1.15,2013-02-22 04:44:00,
2013-02-21 23:50:00,61.1,58.1,30.08,SSW,192,0.0,0.0,90,0.00,,,0.00,Wunderground v.1.15,2013-02-22 04:50:00,
2013-02-21 23:56:00,60.9,57.6,30.08,NE,53,0.0,1.0,89,0.00,,,0.00,Wunderground v.1.15,2013-02-22 04:56:00,